Weather History for West Palm Beach, FL

Change the Weather History Date:

Saturday, October 22, 2011

  Actual Average Record
Temperature  
Mean Temperature 71 °F 77 °F  
Max Temperature 81 °F 84 °F 91 °F (1941)
Min Temperature 60 °F 71 °F 53 °F (1961)
Degree Days  
Heating Degree Days 0 0  
Month to date heating degree days 0 0  
Since 1 July heating degree days 0 0  
Cooling Degree Days 6 12  
Month to date cooling degree days 299 311  
Year to date cooling degree days 4191 3519  
Growing Degree Days 20 (Base 50)    
Moisture  
Dew Point 57 °F    
Average Humidity 66    
Maximum Humidity 87    
Minimum Humidity 45    
Precipitation  
Precipitation 0.00 in 0.15 in 2.45 in (1915)
Month to date precipitation 3.54 3.78  
Year to date precipitation 39.31 52.85  
Snow  
Snow 0.00 in - - ()
Month to date snowfall 0.0  
Since 1 July snowfall 0.0  
Since 1 September snowfall 0.0  
Snow Depth 0.00 in    
Sea Level Pressure  
Sea Level Pressure 29.96 in    
Wind  
Wind Speed 9 mph (NNW)    
Max Wind Speed 15 mph    
Max Gust Speed 18 mph    
Visibility 10 miles    
Events      
T = Trace of Precipitation, MM = Missing Value Source: NWS Daily Summary

Daily Weather History Graph

Daily Weather History Graph

Search for Another Location

Airport:

Trip Planner

Search our weather history database for the weather conditions in past years. The results will help you decide how hot, cold, wet, or windy it might be!

Date:

Astronomy

Oct. 22, 2011 Rise Set
Actual Time 7:23 AM EDT 6:45 PM EDT
Civil Twilight 6:59 AM EDT 7:09 PM EDT
Nautical Twilight 6:32 AM EDT 7:36 PM EDT
Astronomical Twilight 6:05 AM EDT 8:03 PM EDT
Moon 2:46 AM EDT (10/22) 3:40 PM EDT (10/22)
Length of Visible Light 12h 09m
Length of Day
11h 22m
Waning Crescent, 24% of the Moon is Illuminated
Oct 22
Waning Crescent
Oct 26
New
Nov 2
First Quarter
Nov 10
Full
Nov 18
Last Quarter

Hourly Weather History & Observations

Time (EDT) Temp. Heat Index Dew Point Humidity Pressure Visibility Wind Dir Wind Speed Gust Speed Precip Events Conditions
12:53 AM 63.0 °F - 52.0 °F 67% 30.01 in 10.0 mi NW 9.2 mph - N/A   Partly Cloudy
1:53 AM 62.1 °F - 52.0 °F 70% 30.00 in 10.0 mi NW 10.4 mph - N/A   Scattered Clouds
2:53 AM 62.1 °F - 52.0 °F 70% 29.99 in 10.0 mi NW 10.4 mph - N/A   Partly Cloudy
3:53 AM 61.0 °F - 50.0 °F 67% 29.97 in 10.0 mi NW 9.2 mph - N/A   Partly Cloudy
4:53 AM 61.0 °F - 48.9 °F 64% 29.95 in 10.0 mi NW 11.5 mph - N/A   Partly Cloudy
5:53 AM 61.0 °F - 53.1 °F 75% 29.95 in 10.0 mi NW 10.4 mph - N/A   Scattered Clouds
6:53 AM 62.1 °F - 55.0 °F 78% 29.96 in 10.0 mi NW 10.4 mph - N/A   Scattered Clouds
7:53 AM 62.1 °F - 54.0 °F 75% 29.98 in 10.0 mi NW 8.1 mph - N/A   Mostly Cloudy
8:53 AM 64.9 °F - 55.9 °F 73% 29.99 in 10.0 mi NNW 11.5 mph - N/A   Scattered Clouds
9:53 AM 68.0 °F - 57.0 °F 68% 30.00 in 10.0 mi NNW 9.2 mph - N/A   Mostly Cloudy
10:53 AM 73.0 °F - 59.0 °F 61% 30.00 in 10.0 mi NNW 9.2 mph - N/A   Mostly Cloudy
11:53 AM 75.9 °F - 61.0 °F 60% 29.99 in 10.0 mi North 6.9 mph - N/A   Mostly Cloudy
12:53 PM 77.0 °F - 61.0 °F 58% 29.97 in 10.0 mi North 10.4 mph - N/A   Mostly Cloudy
1:53 PM 77.0 °F - 62.1 °F 60% 29.94 in 10.0 mi NE 11.5 mph - N/A   Mostly Cloudy
2:53 PM 78.1 °F - 59.0 °F 52% 29.92 in 10.0 mi NE 11.5 mph 17.3 mph N/A   Mostly Cloudy
3:53 PM 80.1 °F 80.7 °F 59.0 °F 48% 29.91 in 10.0 mi NNE 11.5 mph - N/A   Mostly Cloudy
4:53 PM 78.1 °F - 57.0 °F 48% 29.92 in 10.0 mi NE 13.8 mph - N/A   Mostly Cloudy
5:53 PM 78.1 °F - 55.9 °F 46% 29.92 in 10.0 mi NNE 8.1 mph - N/A   Mostly Cloudy
6:53 PM 75.0 °F - 55.9 °F 51% 29.92 in 10.0 mi North 3.5 mph - N/A   Scattered Clouds
7:53 PM 72.0 °F - 57.9 °F 61% 29.93 in 10.0 mi NNW 4.6 mph - N/A   Mostly Cloudy
8:53 PM 69.1 °F - 61.0 °F 75% 29.94 in 10.0 mi NW 6.9 mph - N/A   Mostly Cloudy
9:53 PM 70.0 °F - 62.1 °F 76% 29.95 in 10.0 mi NNW 5.8 mph - N/A   Mostly Cloudy
10:53 PM 66.9 °F - 61.0 °F 81% 29.95 in 10.0 mi WNW 8.1 mph - N/A   Partly Cloudy
11:53 PM 66.0 °F - 62.1 °F 87% 29.96 in 10.0 mi NW 5.8 mph - N/A   Scattered Clouds